QPF
0.11 0.17 0.21 0.25 0.24 0.20 0.11 0.04 0.01 0.00 0.00 0.00 0.00 0.00 0.00 0.01 0.02 0.01 0.00 0.01 0.01 0.00 0.00 0.00 0.00 0.00 0.00 0.00 0.00 0.00 0.00 0.00 0.00 0.01 0.02 0.03 0.03 0.02 0.01 0.01 0.00 0.00 0.00
0.13 0.15 0.16 0.20 0.23 0.30 0.24 0.13 0.05 0.03 0.02 0.01 0.01 0.00 0.00 0.00 0.01 0.00 0.00 0.00 0.00 0.00 0.00 0.00 0.00 0.00 0.00 0.00 0.00 0.00 0.01 0.00 0.00 0.00 0.01 0.02 0.02 0.01 0.01 0.01 0.00 0.00 0.00
0.18 0.19 0.15 0.13 0.15 0.23 0.27 0.24 0.16 0.09 0.05 0.03 0.01 0.01 0.01 0.01 0.01 0.01 0.00 0.00 0.00 0.00 0.00 0.00 0.00 0.00 0.00 0.00 0.00 0.00 0.01 0.01 0.01 0.01 0.01 0.01 0.01 0.01 0.01 0.00 0.00 0.00 0.00
0.14 0.16 0.18 0.14 0.11 0.18 0.28 0.33 0.27 0.17 0.07 0.04 0.02 0.01 0.01 0.01 0.01 0.01 0.00 0.00 0.00 0.00 0.00 0.00 0.00 0.00 0.00 0.00 0.00 0.00 0.01 0.01 0.01 0.01 0.01 0.01 0.01 0.01 0.01 0.01 0.01 0.01 0.00
0.11 0.15 0.16 0.16 0.16 0.18 0.25 0.32 0.35 0.27 0.15 0.07 0.03 0.01 0.01 0.00 0.01 0.01 0.00 0.00 0.00 0.00 0.00 0.00 0.00 0.00 0.00 0.00 0.01 0.01 0.00 0.01 0.01 0.01 0.01 0.01 0.01 0.01 0.01 0.01 0.01 0.01 0.01
0.07 0.09 0.11 0.16 0.23 0.25 0.24 0.33 0.43 0.39 0.26 0.15 0.08 0.04 0.02 0.01 0.01 0.01 0.00 0.00 0.00 0.00 0.00 0.00 0.00 0.00 0.00 0.00 0.01 0.02 0.01 0.01 0.01 0.01 0.01 0.01 0.01 0.01 0.01 0.01 0.01 0.01 0.01
0.04 0.05 0.06 0.11 0.17 0.20 0.21 0.29 0.39 0.42 0.35 0.23 0.16 0.11 0.07 0.04 0.02 0.02 0.01 0.00 0.01 0.01 0.01 0.00 0.00 0.00 0.00 0.00 0.00 0.01 0.01 0.01 0.01 0.02 0.02 0.01 0.01 0.00 0.01 0.01 0.01 0.01 0.01
0.05 0.05 0.06 0.07 0.12 0.15 0.18 0.20 0.25 0.33 0.35 0.30 0.24 0.20 0.14 0.09 0.05 0.04 0.04 0.02 0.02 0.02 0.02 0.01 0.00 0.00 0.00 0.00 0.00 0.00 0.00 0.01 0.02 0.01 0.02 0.02 0.01 0.01 0.01 0.01 0.01 0.01 0.01
0.06 0.06 0.07 0.06 0.08 0.12 0.14 0.16 0.18 0.22 0.26 0.27 0.26 0.24 0.15 0.10 0.09 0.08 0.08 0.09 0.07 0.06 0.04 0.02 0.02 0.01 0.00 0.00 0.00 0.00 0.00 0.00 0.01 0.01 0.02 0.02 0.01 0.01 0.00 0.00 0.00 0.01 0.01
0.05 0.06 0.08 0.08 0.08 0.11 0.12 0.15 0.20 0.20 0.22 0.24 0.24 0.20 0.15 0.09 0.07 0.06 0.08 0.12 0.14 0.12 0.09 0.06 0.04 0.02 0.01 0.01 0.01 0.01 0.00 0.00 0.01 0.01 0.02 0.02 0.01 0.00 0.00 0.00 0.00 0.01 0.00
0.06 0.08 0.09 0.13 0.12 0.12 0.15 0.18 0.20 0.23 0.24 0.23 0.24 0.23 0.21 0.15 0.09 0.05 0.04 0.07 0.13 0.16 0.15 0.11 0.08 0.05 0.04 0.03 0.03 0.02 0.01 0.01 0.01 0.02 0.02 0.01 0.01 0.01 0.00 0.00 0.00 0.00 0.00
0.09 0.11 0.12 0.13 0.14 0.15 0.18 0.21 0.22 0.25 0.25 0.26 0.28 0.27 0.24 0.21 0.14 0.10 0.06 0.05 0.09 0.12 0.15 0.14 0.12 0.09 0.07 0.09 0.08 0.06 0.03 0.03 0.01 0.02 0.02 0.02 0.02 0.01 0.01 0.01 0.01 0.01 0.01
0.12 0.15 0.18 0.18 0.19 0.18 0.21 0.24 0.25 0.27 0.28 0.27 0.29 0.28 0.29 0.25 0.21 0.19 0.16 0.10 0.07 0.08 0.11 0.13 0.12 0.09 0.08 0.11 0.12 0.11 0.06 0.04 0.03 0.02 0.02 0.02 0.02 0.02 0.02 0.02 0.01 0.02 0.03
0.20 0.23 0.24 0.24 0.25 0.24 0.24 0.25 0.28 0.32 0.34 0.33 0.34 0.33 0.31 0.29 0.28 0.25 0.22 0.19 0.12 0.08 0.07 0.09 0.11 0.09 0.08 0.08 0.12 0.13 0.09 0.05 0.03 0.03 0.04 0.03 0.02 0.02 0.01 0.02 0.02 0.04 0.06
0.23 0.29 0.26 0.22 0.21 0.21 0.22 0.27 0.29 0.33 0.40 0.43 0.44 0.43 0.39 0.35 0.31 0.26 0.25 0.23 0.18 0.12 0.06 0.05 0.07 0.09 0.09 0.08 0.10 0.12 0.11 0.07 0.04 0.04 0.05 0.04 0.03 0.02 0.01 0.01 0.01 0.02 0.03
0.17 0.20 0.17 0.14 0.14 0.15 0.14 0.17 0.20 0.21 0.28 0.36 0.41 0.44 0.41 0.36 0.34 0.31 0.27 0.24 0.19 0.15 0.09 0.06 0.05 0.07 0.08 0.08 0.09 0.10 0.11 0.09 0.07 0.05 0.04 0.03 0.03 0.02 0.01 0.01 0.01 0.01 0.01
0.10 0.11 0.09 0.08 0.08 0.08 0.07 0.08 0.09 0.10 0.13 0.15 0.20 0.25 0.29 0.28 0.28 0.29 0.29 0.24 0.20 0.16 0.12 0.09 0.06 0.06 0.06 0.07 0.08 0.09 0.09 0.08 0.07 0.05 0.04 0.03 0.03 0.03 0.03 0.01 0.01 0.02 0.02
0.02 0.02 0.03 0.04 0.04 0.04 0.04 0.05 0.04 0.04 0.05 0.07 0.08 0.09 0.11 0.14 0.19 0.23 0.22 0.21 0.18 0.16 0.14 0.10 0.07 0.05 0.05 0.05 0.07 0.08 0.08 0.07 0.07 0.08 0.08 0.08 0.07 0.06 0.05 0.03 0.02 0.01 0.01
0.00 0.01 0.01 0.01 0.01 0.02 0.03 0.03 0.03 0.02 0.01 0.02 0.02 0.03 0.04 0.05 0.07 0.09 0.10 0.12 0.11 0.10 0.08 0.07 0.06 0.05 0.04 0.04 0.05 0.06 0.07 0.09 0.09 0.11 0.12 0.12 0.10 0.07 0.05 0.03 0.02 0.01 0.01
0.00 0.00 0.00 0.00 0.00 0.00 0.01 0.02 0.02 0.02 0.02 0.02 0.02 0.01 0.01 0.02 0.03 0.05 0.06 0.07 0.07 0.07 0.06 0.05 0.05 0.04 0.03 0.03 0.03 0.04 0.06 0.08 0.09 0.10 0.10 0.09 0.07 0.06 0.04 0.03 0.02 0.02 0.01
0.00 0.00 0.00 0.00 0.00 0.00 0.00 0.00 0.01 0.01 0.02 0.03 0.02 0.01 0.01 0.02 0.02 0.03 0.03 0.04 0.05 0.05 0.05 0.04 0.04 0.04 0.03 0.04 0.04 0.05 0.06 0.08 0.09 0.09 0.08 0.06 0.05 0.04 0.04 0.03 0.03 0.02 0.01
0.00 0.00 0.00 0.00 0.00 0.00 0.00 0.00 0.00 0.00 0.01 0.02 0.02 0.02 0.01 0.02 0.02 0.03 0.03 0.03 0.04 0.05 0.04 0.03 0.03 0.04 0.04 0.04 0.06 0.07 0.07 0.07 0.11 0.11 0.07 0.06 0.04 0.03 0.02 0.02 0.02 0.02 0.01
0.00 0.00 0.00 0.00 0.00 0.00 0.00 0.00 0.00 0.00 0.01 0.01 0.01 0.02 0.02 0.02 0.02 0.03 0.04 0.04 0.03 0.04 0.04 0.04 0.03 0.04 0.04 0.04 0.05 0.07 0.08 0.09 0.10 0.10 0.07 0.08 0.06 0.04 0.03 0.02 0.01 0.01 0.01
0.00 0.00 0.00 0.00 0.00 0.00 0.00 0.00 0.00 0.01 0.01 0.02 0.02 0.02 0.02 0.02 0.02 0.03 0.04 0.04 0.03 0.02 0.04 0.04 0.05 0.05 0.05 0.05 0.08 0.11 0.11 0.12 0.12 0.10 0.06 0.05 0.05 0.04 0.03 0.02 0.01 0.00 0.00
0.00 0.00 0.00 0.00 0.00 0.00 0.00 0.00 0.00 0.01 0.01 0.01 0.02 0.03 0.03 0.03 0.02 0.03 0.04 0.04 0.04 0.04 0.04 0.04 0.04 0.05 0.06 0.09 0.10 0.10 0.11 0.11 0.10 0.09 0.05 0.03 0.02 0.02 0.01 0.01 0.00 0.00 0.00
0.00 0.00 0.00 0.00 0.00 0.00 0.00 0.00 0.01 0.02 0.03 0.02 0.02 0.03 0.05 0.05 0.04 0.05 0.05 0.05 0.05 0.05 0.04 0.05 0.05 0.07 0.08 0.10 0.13 0.13 0.11 0.08 0.06 0.05 0.04 0.03 0.01 0.00 0.01 0.00 0.00 0.00 0.00
MSLP
1013.94 1014.03 1014.15 1014.29 1014.47 1014.68 1014.92 1015.17 1015.40 1015.58 1015.70 1015.77 1015.79 1015.79 1015.79 1015.83 1015.90 1016.02 1016.18 1016.35 1016.51 1016.65 1016.77 1016.86 1016.95 1017.02 1017.11 1017.21 1017.32 1017.44 1017.56 1017.69 1017.81 1017.95 1018.11 1018.28 1018.47 1018.66 1018.85 1019.01 1019.13 1019.20 1019.21
1013.47 1013.55 1013.67 1013.83 1014.04 1014.30 1014.58 1014.86 1015.11 1015.32 1015.45 1015.52 1015.54 1015.54 1015.53 1015.56 1015.62 1015.73 1015.88 1016.05 1016.23 1016.40 1016.56 1016.71 1016.85 1016.98 1017.11 1017.24 1017.38 1017.51 1017.64 1017.77 1017.90 1018.04 1018.21 1018.39 1018.59 1018.80 1018.99 1019.15 1019.27 1019.33 1019.34
1013.03 1013.10 1013.22 1013.41 1013.65 1013.95 1014.27 1014.58 1014.86 1015.08 1015.23 1015.30 1015.31 1015.30 1015.28 1015.29 1015.33 1015.42 1015.55 1015.71 1015.89 1016.08 1016.27 1016.46 1016.64 1016.82 1017.00 1017.17 1017.33 1017.48 1017.62 1017.76 1017.90 1018.05 1018.23 1018.42 1018.63 1018.84 1019.04 1019.21 1019.33 1019.39 1019.42
1012.66 1012.71 1012.84 1013.05 1013.33 1013.66 1014.01 1014.35 1014.65 1014.88 1015.03 1015.11 1015.12 1015.10 1015.07 1015.06 1015.08 1015.15 1015.25 1015.39 1015.56 1015.75 1015.95 1016.16 1016.37 1016.58 1016.79 1016.99 1017.17 1017.34 1017.50 1017.65 1017.80 1017.97 1018.15 1018.36 1018.57 1018.79 1019.00 1019.17 1019.30 1019.38 1019.41
1012.37 1012.42 1012.55 1012.78 1013.08 1013.43 1013.80 1014.15 1014.46 1014.70 1014.85 1014.93 1014.96 1014.94 1014.92 1014.91 1014.92 1014.96 1015.05 1015.16 1015.31 1015.48 1015.67 1015.88 1016.09 1016.31 1016.53 1016.74 1016.93 1017.11 1017.28 1017.45 1017.62 1017.80 1017.99 1018.21 1018.44 1018.66 1018.87 1019.05 1019.19 1019.29 1019.35
1012.19 1012.21 1012.34 1012.56 1012.86 1013.22 1013.58 1013.93 1014.24 1014.48 1014.64 1014.74 1014.79 1014.80 1014.80 1014.81 1014.84 1014.89 1014.97 1015.07 1015.20 1015.34 1015.50 1015.68 1015.87 1016.07 1016.27 1016.46 1016.65 1016.83 1017.01 1017.19 1017.38 1017.57 1017.79 1018.02 1018.26 1018.49 1018.71 1018.89 1019.04 1019.15 1019.23
1012.07 1012.06 1012.16 1012.36 1012.63 1012.96 1013.31 1013.64 1013.93 1014.17 1014.35 1014.47 1014.56 1014.63 1014.69 1014.75 1014.83 1014.91 1015.00 1015.11 1015.22 1015.34 1015.46 1015.60 1015.74 1015.89 1016.05 1016.22 1016.38 1016.55 1016.73 1016.92 1017.13 1017.35 1017.59 1017.83 1018.08 1018.32 1018.54 1018.73 1018.89 1019.01 1019.11
1011.98 1011.91 1011.96 1012.11 1012.34 1012.61 1012.91 1013.21 1013.48 1013.72 1013.91 1014.08 1014.23 1014.38 1014.52 1014.67 1014.82 1014.96 1015.10 1015.23 1015.34 1015.44 1015.53 1015.61 1015.70 1015.80 1015.90 1016.02 1016.15 1016.31 1016.48 1016.68 1016.91 1017.15 1017.42 1017.69 1017.95 1018.20 1018.43 1018.62 1018.77 1018.91 1019.03
1011.88 1011.74 1011.71 1011.78 1011.93 1012.14 1012.38 1012.63 1012.87 1013.10 1013.32 1013.54 1013.76 1014.00 1014.24 1014.49 1014.74 1014.97 1015.17 1015.34 1015.47 1015.57 1015.63 1015.68 1015.72 1015.76 1015.81 1015.88 1015.98 1016.11 1016.28 1016.49 1016.73 1017.01 1017.30 1017.59 1017.88 1018.14 1018.37 1018.56 1018.72 1018.86 1018.99
1011.76 1011.53 1011.41 1011.38 1011.44 1011.56 1011.72 1011.91 1012.11 1012.33 1012.57 1012.84 1013.13 1013.46 1013.81 1014.16 1014.51 1014.83 1015.12 1015.34 1015.51 1015.63 1015.70 1015.72 1015.73 1015.73 1015.74 1015.77 1015.84 1015.95 1016.11 1016.33 1016.59 1016.89 1017.21 1017.53 1017.84 1018.12 1018.36 1018.56 1018.72 1018.87 1019.00
1011.62 1011.31 1011.08 1010.96 1010.91 1010.94 1011.01 1011.13 1011.29 1011.49 1011.73 1012.03 1012.38 1012.78 1013.21 1013.66 1014.10 1014.51 1014.87 1015.16 1015.39 1015.54 1015.63 1015.67 1015.67 1015.66 1015.65 1015.66 1015.71 1015.80 1015.96 1016.18 1016.45 1016.77 1017.12 1017.46 1017.79 1018.09 1018.35 1018.56 1018.73 1018.88 1019.02
1011.53 1011.13 1010.82 1010.59 1010.44 1010.37 1010.35 1010.39 1010.49 1010.66 1010.89 1011.20 1011.58 1012.02 1012.50 1013.00 1013.51 1013.98 1014.40 1014.76 1015.05 1015.26 1015.40 1015.48 1015.51 1015.51 1015.51 1015.52 1015.56 1015.65 1015.80 1016.02 1016.30 1016.62 1016.98 1017.34 1017.69 1018.01 1018.29 1018.52 1018.71 1018.87 1019.03
1011.54 1011.07 1010.68 1010.37 1010.13 1009.95 1009.85 1009.81 1009.84 1009.96 1010.16 1010.44 1010.81 1011.24 1011.73 1012.25 1012.78 1013.28 1013.75 1014.16 1014.51 1014.79 1015.00 1015.15 1015.24 1015.30 1015.33 1015.36 1015.41 1015.50 1015.64 1015.84 1016.10 1016.42 1016.77 1017.14 1017.51 1017.84 1018.15 1018.40 1018.62 1018.81 1018.98
1011.70 1011.20 1010.75 1010.36 1010.04 1009.79 1009.59 1009.47 1009.43 1009.48 1009.61 1009.84 1010.16 1010.55 1011.00 1011.49 1012.00 1012.50 1012.99 1013.44 1013.84 1014.19 1014.49 1014.72 1014.90 1015.03 1015.12 1015.19 1015.26 1015.35 1015.48 1015.66 1015.90 1016.19 1016.52 1016.88 1017.24 1017.59 1017.92 1018.20 1018.45 1018.67 1018.87
1012.04 1011.52 1011.04 1010.61 1010.23 1009.90 1009.63 1009.43 1009.30 1009.27 1009.32 1009.47 1009.70 1010.02 1010.39 1010.81 1011.27 1011.74 1012.22 1012.68 1013.13 1013.55 1013.93 1014.26 1014.54 1014.76 1014.93 1015.05 1015.15 1015.25 1015.37 1015.51 1015.71 1015.96 1016.26 1016.59 1016.95 1017.30 1017.64 1017.96 1018.24 1018.49 1018.72
1012.53 1012.03 1011.54 1011.08 1010.65 1010.27 1009.93 1009.66 1009.45 1009.33 1009.29 1009.35 1009.48 1009.69 1009.97 1010.30 1010.68 1011.09 1011.54 1012.00 1012.48 1012.96 1013.41 1013.84 1014.22 1014.53 1014.78 1014.97 1015.11 1015.23 1015.33 1015.45 1015.61 1015.81 1016.07 1016.37 1016.70 1017.05 1017.40 1017.74 1018.05 1018.33 1018.59
1013.11 1012.64 1012.17 1011.70 1011.25 1010.82 1010.43 1010.10 1009.82 1009.62 1009.50 1009.46 1009.49 1009.60 1009.77 1010.00 1010.29 1010.63 1011.03 1011.48 1011.96 1012.47 1012.99 1013.49 1013.96 1014.36 1014.70 1014.96 1015.15 1015.29 1015.40 1015.51 1015.63 1015.80 1016.02 1016.28 1016.59 1016.93 1017.28 1017.62 1017.95 1018.26 1018.53
1013.69 1013.26 1012.81 1012.36 1011.90 1011.45 1011.03 1010.64 1010.31 1010.04 1009.85 1009.73 1009.68 1009.70 1009.77 1009.91 1010.12 1010.39 1010.73 1011.13 1011.60 1012.12 1012.67 1013.23 1013.76 1014.24 1014.65 1014.98 1015.23 1015.41 1015.55 1015.67 1015.80 1015.95 1016.15 1016.39 1016.68 1017.00 1017.34 1017.68 1018.02 1018.33 1018.62
1014.18 1013.80 1013.39 1012.95 1012.50 1012.04 1011.60 1011.18 1010.82 1010.51 1010.27 1010.09 1009.98 1009.93 1009.94 1010.01 1010.14 1010.34 1010.61 1010.97 1011.40 1011.89 1012.44 1013.01 1013.58 1014.11 1014.58 1014.98 1015.30 1015.55 1015.75 1015.92 1016.07 1016.25 1016.45 1016.69 1016.97 1017.29 1017.62 1017.95 1018.28 1018.58 1018.86
1014.54 1014.20 1013.82 1013.40 1012.97 1012.51 1012.07 1011.64 1011.26 1010.94 1010.67 1010.47 1010.33 1010.25 1010.21 1010.23 1010.31 1010.44 1010.65 1010.94 1011.31 1011.75 1012.26 1012.81 1013.38 1013.93 1014.45 1014.91 1015.31 1015.64 1015.92 1016.17 1016.40 1016.63 1016.88 1017.16 1017.45 1017.77 1018.09 1018.41 1018.72 1019.00 1019.25
1014.75 1014.44 1014.09 1013.71 1013.29 1012.85 1012.41 1011.99 1011.61 1011.28 1011.02 1010.82 1010.68 1010.59 1010.54 1010.54 1010.57 1010.66 1010.80 1011.01 1011.30 1011.67 1012.10 1012.59 1013.13 1013.67 1014.21 1014.72 1015.19 1015.62 1016.00 1016.36 1016.70 1017.03 1017.37 1017.70 1018.04 1018.37 1018.70 1019.00 1019.28 1019.54 1019.76
1014.86 1014.57 1014.25 1013.89 1013.49 1013.06 1012.63 1012.23 1011.86 1011.54 1011.30 1011.12 1010.99 1010.92 1010.88 1010.87 1010.89 1010.93 1011.02 1011.15 1011.35 1011.61 1011.95 1012.36 1012.82 1013.33 1013.86 1014.40 1014.93 1015.45 1015.95 1016.44 1016.91 1017.36 1017.80 1018.23 1018.63 1019.00 1019.34 1019.64 1019.90 1020.12 1020.31
1014.93 1014.67 1014.37 1014.02 1013.63 1013.22 1012.80 1012.40 1012.05 1011.75 1011.53 1011.37 1011.28 1011.23 1011.22 1011.22 1011.23 1011.25 1011.28 1011.35 1011.45 1011.61 1011.84 1012.14 1012.51 1012.95 1013.45 1013.99 1014.56 1015.16 1015.76 1016.37 1016.97 1017.56 1018.12 1018.65 1019.13 1019.56 1019.93 1020.24 1020.49 1020.69 1020.85
1015.04 1014.80 1014.52 1014.19 1013.81 1013.40 1012.99 1012.59 1012.24 1011.95 1011.75 1011.61 1011.55 1011.53 1011.55 1011.57 1011.59 1011.59 1011.59 1011.59 1011.62 1011.68 1011.80 1011.99 1012.26 1012.62 1013.06 1013.57 1014.16 1014.80 1015.48 1016.18 1016.90 1017.60 1018.27 1018.90 1019.47 1019.96 1020.38 1020.71 1020.97 1021.16 1021.31
1015.25 1015.03 1014.76 1014.44 1014.07 1013.66 1013.23 1012.83 1012.47 1012.19 1011.99 1011.87 1011.82 1011.83 1011.87 1011.92 1011.95 1011.96 1011.95 1011.91 1011.88 1011.87 1011.89 1011.99 1012.16 1012.43 1012.79 1013.26 1013.83 1014.47 1015.18 1015.94 1016.73 1017.51 1018.27 1018.98 1019.62 1020.18 1020.64 1021.01 1021.29 1021.50 1021.66
1015.56 1015.36 1015.11 1014.80 1014.43 1014.01 1013.58 1013.16 1012.79 1012.49 1012.27 1012.15 1012.12 1012.14 1012.20 1012.27 1012.32 1012.35 1012.34 1012.30 1012.24 1012.19 1012.15 1012.17 1012.27 1012.46 1012.75 1013.15 1013.66 1014.27 1014.97 1015.73 1016.54 1017.36 1018.17 1018.93 1019.62 1020.23 1020.74 1021.15 1021.47 1021.71 1021.89
Thickness
5760 5761 5761 5761 5761 5762 5762 5762 5762 5763 5763 5764 5765 5765 5766 5766 5766 5766 5766 5766 5765 5764 5763 5762 5761 5760 5759 5757 5756 5755 5754 5753 5752 5751 5750 5749 5747 5746 5745 5744 5743 5743 5742
5758 5758 5758 5758 5759 5760 5760 5760 5760 5760 5761 5762 5763 5765 5766 5765 5765 5765 5765 5765 5764 5764 5763 5762 5761 5760 5758 5757 5756 5755 5754 5752 5751 5750 5749 5747 5746 5745 5744 5742 5741 5740 5740
5753 5753 5753 5755 5756 5757 5756 5756 5757 5757 5757 5759 5761 5764 5765 5765 5764 5764 5763 5763 5763 5762 5762 5762 5760 5759 5758 5757 5755 5754 5753 5752 5750 5749 5747 5746 5745 5743 5742 5741 5739 5738 5737
5747 5749 5749 5750 5752 5753 5753 5752 5751 5751 5752 5754 5757 5761 5764 5764 5763 5762 5761 5761 5761 5760 5760 5760 5759 5758 5757 5756 5754 5753 5752 5751 5749 5748 5746 5745 5743 5742 5740 5739 5737 5736 5735
5740 5743 5744 5746 5747 5748 5749 5749 5748 5747 5747 5749 5753 5756 5760 5761 5761 5760 5758 5758 5758 5758 5758 5757 5757 5756 5755 5754 5753 5752 5751 5749 5748 5746 5745 5743 5742 5740 5738 5737 5736 5734 5733
5732 5735 5737 5740 5741 5742 5742 5743 5742 5742 5742 5744 5747 5750 5753 5756 5758 5758 5757 5756 5755 5755 5754 5754 5754 5753 5753 5752 5751 5750 5749 5748 5746 5745 5743 5742 5740 5738 5737 5735 5734 5733 5732
5723 5726 5729 5731 5734 5735 5737 5738 5737 5735 5736 5737 5737 5738 5743 5748 5751 5753 5755 5754 5752 5751 5751 5751 5750 5750 5750 5749 5749 5748 5747 5746 5745 5743 5741 5740 5738 5736 5735 5733 5732 5731 5730
5714 5718 5721 5723 5726 5728 5729 5731 5731 5730 5730 5731 5729 5726 5726 5731 5739 5746 5749 5750 5750 5749 5747 5747 5747 5747 5747 5747 5746 5746 5745 5744 5742 5741 5739 5738 5736 5734 5732 5731 5730 5728 5727
5705 5709 5713 5715 5718 5721 5722 5724 5726 5726 5723 5725 5726 5723 5718 5719 5725 5733 5740 5744 5745 5745 5744 5744 5743 5743 5743 5743 5743 5743 5742 5741 5740 5738 5737 5735 5733 5731 5730 5728 5727 5725 5724
5696 5700 5704 5708 5711 5713 5716 5718 5721 5722 5721 5719 5720 5723 5724 5724 5719 5721 5728 5735 5739 5740 5740 5741 5740 5740 5740 5740 5740 5739 5739 5738 5736 5735 5734 5732 5730 5728 5726 5724 5723 5722 5720
5687 5691 5695 5699 5703 5706 5709 5712 5714 5716 5718 5718 5718 5717 5716 5718 5720 5718 5717 5723 5728 5733 5736 5737 5737 5737 5737 5737 5736 5736 5735 5734 5733 5732 5730 5728 5726 5724 5722 5720 5719 5717 5716
5676 5681 5686 5690 5694 5698 5702 5705 5708 5710 5712 5714 5715 5716 5715 5714 5714 5715 5714 5715 5718 5724 5728 5731 5733 5734 5734 5734 5733 5733 5731 5730 5729 5728 5726 5724 5722 5720 5718 5716 5714 5713 5711
5665 5670 5676 5681 5685 5690 5694 5698 5700 5704 5707 5708 5710 5712 5714 5716 5715 5714 5710 5709 5711 5715 5719 5723 5728 5730 5731 5730 5730 5730 5728 5726 5725 5723 5722 5720 5718 5716 5714 5712 5710 5709 5707
5658 5662 5667 5671 5676 5680 5685 5689 5693 5696 5700 5702 5704 5707 5708 5711 5711 5710 5709 5706 5703 5705 5710 5716 5721 5725 5727 5727 5727 5726 5724 5722 5721 5719 5717 5715 5713 5711 5709 5707 5706 5704 5702
5653 5655 5658 5661 5665 5670 5674 5678 5682 5687 5691 5695 5697 5699 5702 5704 5706 5707 5707 5706 5703 5699 5702 5709 5714 5720 5722 5723 5723 5722 5720 5718 5716 5715 5712 5710 5708 5706 5704 5702 5701 5699 5697
5646 5648 5650 5652 5655 5658 5663 5667 5672 5676 5681 5685 5688 5691 5694 5697 5699 5701 5702 5703 5703 5701 5699 5704 5709 5714 5717 5717 5718 5717 5716 5714 5711 5709 5707 5705 5702 5700 5698 5696 5695 5693 5691
5641 5642 5643 5645 5647 5649 5653 5657 5661 5666 5670 5674 5678 5681 5685 5689 5691 5694 5696 5697 5698 5698 5696 5698 5703 5707 5709 5710 5711 5711 5710 5708 5705 5703 5701 5698 5696 5694 5692 5689 5688 5686 5684
5637 5637 5637 5638 5640 5642 5645 5648 5651 5656 5660 5664 5667 5671 5675 5680 5683 5686 5689 5691 5692 5694 5693 5692 5694 5698 5700 5703 5704 5703 5702 5701 5699 5697 5695 5692 5690 5687 5684 5682 5681 5679 5677
5632 5632 5632 5633 5634 5636 5639 5642 5644 5648 5651 5655 5658 5662 5665 5670 5673 5677 5680 5683 5686 5688 5689 5689 5688 5691 5692 5695 5695 5694 5694 5693 5691 5689 5687 5685 5682 5680 5677 5675 5673 5671 5669
5629 5629 5628 5629 5630 5631 5633 5635 5638 5641 5644 5648 5650 5653 5657 5661 5664 5668 5672 5675 5678 5680 5682 5683 5683 5684 5685 5687 5687 5685 5683 5683 5682 5680 5677 5675 5673 5671 5668 5667 5665 5663 5661
5626 5625 5625 5624 5625 5627 5629 5631 5632 5634 5636 5639 5642 5645 5649 5653 5658 5662 5666 5669 5672 5674 5675 5675 5676 5677 5678 5679 5679 5678 5676 5674 5671 5669 5668 5665 5664 5661 5659 5658 5656 5654 5653
5623 5622 5620 5619 5619 5621 5623 5626 5627 5628 5629 5631 5633 5636 5641 5645 5650 5655 5659 5663 5666 5667 5668 5669 5671 5672 5672 5674 5673 5672 5669 5666 5661 5659 5659 5654 5653 5651 5650 5648 5647 5645 5644
5620 5618 5616 5615 5614 5614 5617 5619 5620 5620 5621 5623 5626 5629 5633 5637 5641 5645 5650 5654 5657 5661 5664 5666 5666 5667 5668 5670 5669 5665 5663 5660 5656 5652 5650 5644 5642 5641 5639 5638 5637 5636 5635
5618 5615 5613 5610 5608 5608 5610 5611 5612 5611 5613 5615 5618 5621 5624 5627 5632 5636 5641 5644 5648 5652 5657 5660 5662 5664 5666 5666 5665 5662 5657 5652 5647 5644 5644 5636 5632 5630 5629 5628 5627 5627 5627
5616 5613 5609 5605 5602 5600 5601 5602 5603 5602 5603 5606 5609 5613 5617 5620 5625 5629 5632 5635 5639 5643 5647 5652 5656 5658 5660 5660 5659 5654 5649 5646 5640 5636 5635 5632 5625 5622 5619 5618 5619 5620 5620
5616 5612 5607 5602 5597 5594 5594 5594 5594 5593 5594 5596 5600 5605 5610 5614 5618 5622 5625 5629 5631 5635 5640 5643 5646 5648 5651 5652 5652 5651 5649 5644 5638 5632 5629 5627 5621 5619 5613 5611 5612 5613 5614